Location: Juzet
(42.9779°N, 0.7597°E)
Time: 17:14:43
(UTC+00:00)

SL-27 R/B - Pass Details

Date: 14 July 2020
Orbit: 420 x 470 km, 74.7° (Epoch: 13 August)

Event Time Altitude Azimuth Distance (km) Brightness Sun altitude
Exits shadow 03:54:24 - 215° (SW) 1,815 4.9 -6.4°
Reaches altitude 10° 03:54:58 10° 217° (SW) 1,590 4.6 -6.3°
Maximum altitude 03:58:20 46° 292° (WNW) 619 2.9 -5.8°
Drops below altitude 10° 04:01:41 10° 7° (N) 1,575 5.8 -5.3°
Sets 04:03:49 0° 14° (NNE) 2,441 7.0 -5.0°
